Wind_Speed
8 9 9 9 8 5 4 3 0 1 1 2 1 0 0 1 3 2 2 3 2 2 5 7 6 3 5 7 9 10 11 3 4 5 3 8 25 28 20 23 26 25 25 23 21 20 20 20 18 18 16 15 14 14 15 14 13 13 13 13 13 13 12 12 12 12 13 12 13 13 13 14 14 14 14 15 16 16 16 16 17 17 17 16 16 16 16 16 17 17 16 17 17 17 19 19 18
10 8 6 6 6 3 1 0 0 0 1 2 1 1 1 2 2 2 4 1 2 2 3 4 8 8 9 8 8 13 13 7 9 9 7 22 29 23 24 27 27 26 25 22 22 21 21 20 18 18 16 15 15 15 14 13 13 13 12 12 11 11 11 11 11 12 12 12 12 13 13 14 14 14 15 15 16 16 16 17 17 17 17 16 16 15 16 16 17 17 17 18 18 19 20 18 19
9 6 5 6 5 4 1 1 0 1 1 2 1 1 1 2 2 4 4 5 4 6 3 6 10 8 10 12 10 11 8 6 15 13 10 25 21 20 29 26 26 26 24 23 22 22 22 21 20 19 17 16 16 15 14 13 13 12 12 11 11 11 11 12 12 12 12 13 13 13 14 14 15 15 16 15 15 15 15 17 17 17 17 16 15 15 16 16 17 17 18 19 20 21 20 19 20
8 8 8 6 3 2 0 1 1 1 1 1 1 1 1 1 2 3 3 7 7 6 3 8 8 6 12 16 9 11 10 7 15 14 10 19 21 27 31 26 26 24 24 24 23 24 23 22 21 20 18 17 16 15 14 13 12 12 12 12 12 12 13 13 13 13 13 13 13 14 15 15 15 16 16 15 14 14 15 16 17 17 16 16 15 15 15 16 17 18 18 20 21 21 20 19 19
10 12 11 7 2 0 0 1 1 1 1 0 1 2 2 1 2 4 1 2 2 3 2 7 6 7 11 11 6 7 10 10 14 16 15 22 29 32 29 27 26 23 23 23 25 25 23 23 21 20 19 17 16 14 13 13 13 12 12 12 12 13 13 14 14 14 14 14 15 15 15 15 16 16 16 15 14 13 15 15 16 16 16 16 15 15 15 16 17 19 19 21 21 21 21 20 19
9 9 10 8 1 2 0 1 1 3 2 2 1 1 3 4 3 6 3 3 6 3 4 7 10 10 10 8 7 7 10 13 14 17 22 28 31 31 30 28 25 23 23 23 26 26 25 23 22 20 18 17 15 14 13 13 13 12 13 13 13 14 14 14 14 14 14 15 15 15 15 15 16 15 15 15 14 12 14 15 14 16 17 16 15 15 15 16 18 20 21 22 22 21 22 22 21
7 3 4 5 1 2 1 2 1 4 1 2 1 1 4 5 5 7 5 3 6 5 6 8 13 11 9 8 8 12 16 17 17 21 28 32 32 32 29 27 26 25 24 25 27 26 25 24 22 20 18 17 15 14 14 14 13 13 13 13 14 14 14 14 14 14 15 15 15 15 15 16 15 16 15 16 15 12 14 15 15 15 16 17 16 15 16 17 18 20 21 23 24 22 22 22 23
9 2 1 1 1 1 1 2 2 3 1 1 2 2 4 6 6 7 5 2 3 4 1 10 11 12 11 8 7 14 22 20 23 29 33 35 33 31 29 28 27 25 25 27 28 27 26 24 22 19 18 17 15 15 15 14 14 14 14 14 14 14 14 14 14 15 15 15 15 16 15 15 15 15 16 16 15 13 14 15 15 15 16 17 17 16 17 17 18 20 22 24 24 23 22 22 23
11 3 2 1 0 1 1 2 3 2 3 3 3 4 2 7 5 7 5 0 4 4 6 12 9 12 13 12 9 12 21 26 30 33 33 33 31 29 28 28 28 27 28 28 28 27 26 23 21 18 17 16 16 16 15 15 14 14 14 14 15 15 14 14 14 14 15 15 15 15 15 15 15 15 15 15 15 14 15 15 15 16 17 17 18 18 18 17 18 20 22 23 23 23 23 23 22
4 1 1 0 1 1 1 1 2 0 1 3 3 4 2 5 5 7 5 2 4 2 11 13 10 15 14 13 10 11 22 31 33 31 31 31 30 28 27 27 28 31 30 29 28 27 25 22 19 17 16 16 16 16 16 15 14 14 14 15 15 15 15 14 14 14 14 15 15 15 15 15 15 15 15 15 16 15 15 15 15 16 18 18 18 18 18 18 18 20 21 22 23 23 23 23 22
2 2 0 0 1 1 2 1 1 0 1 1 2 5 5 2 4 6 5 6 4 3 14 12 11 16 14 11 8 18 30 32 31 30 30 29 29 28 27 26 28 32 32 30 28 25 23 21 18 17 16 16 16 16 16 14 14 14 14 15 15 15 15 14 14 14 14 14 14 14 14 15 15 15 15 16 16 16 16 15 15 16 17 18 18 18 17 18 19 20 21 21 21 22 23 23 23
3 1 1 1 1 0 2 2 1 2 2 2 1 4 4 4 3 7 6 6 1 6 12 8 10 13 13 9 6 21 30 28 29 30 30 29 29 28 26 26 28 31 30 29 27 24 23 21 19 17 16 16 16 16 15 14 14 14 15 14 14 15 14 14 14 14 14 14 14 14 14 15 15 16 16 15 16 16 16 16 15 15 16 17 17 17 17 18 19 19 20 20 20 21 22 23 23
3 2 2 1 1 0 3 3 1 3 2 3 2 3 2 2 2 4 6 6 1 5 10 9 11 12 12 8 7 17 22 25 29 29 29 29 28 27 26 26 27 27 27 27 26 24 22 21 19 18 17 16 15 15 14 14 14 14 14 14 14 14 14 14 14 14 14 14 15 15 15 15 16 16 16 15 16 16 16 16 15 15 15 16 17 17 17 17 18 18 18 19 20 22 22 23 23
3 2 2 1 0 1 2 2 2 3 1 2 3 1 2 2 1 0 3 6 3 3 10 12 11 12 13 9 8 10 16 27 29 27 28 28 28 27 26 26 25 25 25 26 25 23 22 20 19 18 18 17 15 14 14 14 14 14 14 15 15 14 14 14 14 14 14 15 15 15 16 16 16 16 16 15 15 16 16 16 15 15 16 16 17 17 17 17 17 17 16 18 21 22 22 22 23
4 2 2 1 2 2 1 1 1 2 1 3 3 3 3 3 1 1 1 4 5 1 5 13 10 8 12 11 9 10 20 30 29 27 29 29 28 26 26 26 25 24 24 24 24 22 20 18 18 19 18 18 17 15 14 13 13 13 13 14 15 14 14 14 14 14 14 14 14 15 16 16 15 16 16 15 15 15 15 16 15 15 16 16 16 16 17 17 16 16 16 18 20 20 21 22 22
3 2 2 1 3 2 1 1 1 2 2 5 3 4 6 4 2 2 1 1 5 2 3 7 8 7 11 12 14 22 29 32 30 29 29 28 27 26 26 25 24 24 23 23 22 20 19 19 19 18 17 17 16 15 15 14 13 12 13 14 15 15 14 14 15 15 15 14 13 15 16 16 15 15 16 15 15 15 14 15 15 15 15 15 15 16 16 16 16 16 18 19 19 20 22 22 22
3 2 2 1 3 3 1 1 1 3 4 6 4 5 7 5 3 1 2 1 5 3 2 3 8 11 12 15 25 32 34 34 33 31 29 27 25 25 24 24 24 23 23 22 21 20 19 19 19 17 16 16 15 15 15 14 13 13 13 13 15 15 14 14 15 15 15 14 14 14 15 15 15 16 16 16 15 15 14 14 14 14 15 15 15 15 15 16 17 18 19 19 20 22 23 22 21
3 1 1 0 2 2 2 1 3 6 6 6 5 4 7 7 4 2 1 4 5 4 1 3 10 14 16 23 32 32 33 36 34 29 26 23 22 22 22 23 24 23 24 23 22 21 20 19 18 17 16 16 15 15 15 15 14 14 14 14 15 15 14 15 15 16 15 14 14 14 14 14 15 16 16 16 16 15 14 14 14 14 14 14 14 15 16 18 20 20 20 20 21 22 22 21 20
2 1 2 2 2 2 2 0 4 7 7 7 5 3 5 7 4 2 1 4 5 4 3 7 12 16 19 24 29 29 31 34 32 29 24 21 21 20 20 21 22 22 24 24 23 21 20 20 18 17 18 16 15 15 15 16 16 15 15 15 16 15 15 15 14 15 15 14 14 13 13 13 14 14 14 15 16 15 13 13 15 15 14 14 14 15 16 19 20 20 20 21 21 20 19 18 17
0 2 2 2 4 3 4 4 4 8 9 9 6 3 5 5 3 2 4 5 3 2 3 10 15 18 20 19 23 27 28 29 30 29 25 22 21 21 20 20 21 22 23 24 24 22 21 21 20 18 18 17 16 15 16 17 16 15 15 15 15 14 14 14 14 15 14 14 14 13 12 14 14 14 13 14 15 15 14 14 16 16 16 14 15 16 17 19 20 20 20 20 20 19 17 16 15
2 2 2 3 6 4 4 6 7 9 9 8 7 6 6 3 2 3 6 6 1 2 1 8 18 19 20 18 19 24 24 25 26 26 25 22 22 20 20 21 22 23 22 22 23 24 22 21 21 19 18 17 16 16 16 17 16 15 15 15 15 14 14 13 13 13 12 12 14 13 12 13 15 15 15 14 15 15 14 16 17 18 18 17 17 18 19 20 21 21 21 20 19 18 16 14 14
3 4 3 4 6 4 5 8 10 9 8 8 7 7 6 2 3 2 5 4 2 3 1 5 18 19 19 19 17 20 20 20 21 22 22 22 23 20 19 22 23 22 21 21 22 24 23 21 21 21 20 17 16 17 16 16 15 15 16 16 15 14 14 13 12 12 11 12 13 14 13 13 16 17 16 16 16 14 14 16 18 18 17 17 17 17 18 18 17 18 18 17 16 14 13 12 11
4 3 3 3 5 4 6 9 10 9 8 8 6 5 5 5 4 1 2 3 2 3 1 4 16 20 20 20 17 17 17 16 18 21 21 22 23 21 21 22 21 23 22 21 21 23 23 20 21 21 20 18 16 17 16 16 16 15 16 16 16 16 14 13 11 11 11 12 13 14 14 14 17 18 18 17 16 14 14 15 16 17 16 16 17 16 15 14 13 12 11 10 9 9 9 9 9
5 2 2 3 4 6 9 11 11 10 9 6 7 7 6 7 5 1 2 2 2 2 2 3 14 21 20 18 15 16 17 17 19 21 22 22 23 21 23 24 22 23 22 21 22 23 23 21 21 21 19 19 18 17 17 17 17 16 15 17 18 17 16 14 12 12 12 13 13 14 16 16 16 18 19 18 16 14 13 13 14 15 15 14 14 14 13 12 11 9 8 6 6 7 7 8 9
3 5 3 3 2 9 10 10 12 11 9 6 8 7 5 6 4 3 2 3 3 3 4 3 11 19 17 15 15 15 16 17 19 21 23 24 23 24 24 23 21 23 21 21 22 22 22 21 21 22 20 19 18 18 18 16 16 15 14 16 18 17 16 14 13 12 13 14 13 14 15 16 16 17 17 16 14 13 12 13 13 13 13 12 12 11 10 9 8 6 4 3 4 5 5 7 10
4 6 6 2 3 11 12 11 13 10 8 7 8 7 5 4 3 2 1 2 4 5 6 4 10 17 15 14 14 14 13 15 19 19 22 25 24 25 24 21 21 22 21 21 23 22 22 22 22 22 21 19 18 18 18 17 16 15 14 15 16 15 15 15 14 12 13 14 14 14 14 15 15 15 15 15 13 12 12 13 13 13 12 12 11 10 9 8 6 4 2 3 5 6 8 10 12
10 10 7 3 5 9 12 11 13 11 8 9 9 8 5 2 1 1 2 2 4 7 10 7 10 16 14 14 13 13 13 15 20 19 20 24 23 24 23 22 22 22 23 22 23 22 22 22 21 22 21 20 19 18 18 17 16 15 15 15 14 15 15 15 14 12 12 14 14 14 14 15 15 15 15 15 14 14 13 13 13 13 13 13 11 10 10 7 6 4 3 6 9 11 12 12 12
10 15 9 9 12 10 14 11 11 12 9 9 10 10 6 2 1 1 4 3 3 8 12 10 12 14 13 14 13 11 12 15 20 18 18 22 23 24 23 22 23 23 24 23 22 22 22 21 19 20 21 20 18 17 17 17 15 15 15 14 14 16 16 15 14 13 11 13 16 15 14 15 15 16 16 15 15 15 15 15 14 14 14 14 13 12 10 9 8 6 7 10 12 12 10 10 12
4 12 9 12 12 10 16 13 12 12 9 11 11 9 4 2 2 3 5 3 3 6 9 11 12 13 11 13 11 8 11 16 18 16 18 24 26 27 25 24 24 22 23 23 22 22 21 21 20 19 20 19 18 16 16 17 17 16 15 14 15 16 16 15 14 13 12 14 17 16 15 17 16 16 16 16 15 14 15 16 15 14 14 14 14 13 12 11 9 7 8 9 9 8 8 10 12
5 5 6 6 5 9 15 14 13 12 11 15 9 5 3 4 4 5 5 5 3 3 6 10 11 13 11 11 10 8 11 14 15 16 21 25 27 28 28 26 25 23 23 24 23 22 20 21 20 19 19 18 17 16 16 17 17 16 14 14 14 15 15 15 14 14 14 15 16 17 18 18 16 15 15 16 16 14 15 16 15 15 15 14 14 13 12 10 8 8 8 7 6 6 8 11 11
5 4 4 4 3 5 10 10 13 11 10 15 6 2 5 5 5 5 4 5 4 4 6 10 11 11 11 11 10 9 11 14 15 18 22 24 26 29 30 29 27 24 24 26 24 23 21 20 20 18 19 19 17 16 17 17 16 15 14 14 13 14 15 15 14 14 15 16 16 18 18 17 15 14 15 16 16 15 15 15 16 15 14 13 12 11 10 8 7 8 6 6 7 7 9 11 8
4 3 3 4 4 5 6 7 11 11 10 13 5 2 4 4 6 5 4 5 5 5 4 6 10 10 10 12 11 9 10 14 17 20 21 22 26 29 31 30 27 26 26 26 25 24 22 20 19 19 20 20 17 16 17 16 16 15 16 15 13 13 14 13 12 12 14 14 15 17 17 15 13 13 14 15 15 16 15 14 14 13 11 10 9 8 7 8 7 7 6 7 8 7 8 9 7
4 3 4 4 7 9 7 4 7 12 12 10 4 3 2 3 6 4 3 5 4 4 3 2 5 8 11 12 10 8 9 11 13 19 21 21 24 27 31 30 28 28 26 24 27 27 23 22 21 19 19 20 18 18 18 17 17 17 17 16 15 15 13 13 13 11 12 13 12 15 15 13 13 14 15 14 15 16 15 13 11 10 9 7 7 7 7 7 7 8 7 6 7 6 7 8 7
4 4 4 5 8 11 8 3 4 11 12 6 4 5 3 4 7 4 2 5 5 4 3 2 1 2 7 11 11 7 10 9 8 17 21 20 22 24 28 30 29 29 25 24 29 27 24 24 23 21 19 19 19 19 18 18 18 17 16 16 17 17 15 16 15 13 14 13 11 12 13 13 13 14 16 15 15 15 14 12 12 12 10 9 9 9 8 7 7 9 7 6 7 6 7 7 7
6 7 5 6 7 12 11 7 7 11 11 7 5 4 5 6 7 4 3 4 6 5 4 2 0 1 2 7 10 8 10 8 7 19 22 20 22 23 27 29 30 29 25 26 30 26 24 24 24 23 20 20 20 19 18 19 18 17 15 15 16 17 18 19 18 17 16 15 14 11 10 11 12 13 14 14 14 14 12 11 12 13 11 10 10 10 9 8 8 9 8 7 7 5 6 7 8
9 6 6 7 6 10 13 10 11 14 11 8 6 5 6 8 8 7 5 4 5 5 4 2 0 2 2 1 4 8 12 8 10 23 23 20 23 23 26 29 29 29 26 27 30 26 24 26 26 24 22 22 22 19 19 20 20 18 16 15 15 16 19 20 20 20 17 15 17 16 12 12 11 12 12 11 12 12 11 10 11 11 11 10 9 9 9 9 9 8 6 5 5 4 5 7 6
12 9 6 7 6 7 14 12 13 14 10 7 7 7 7 9 9 9 8 6 6 5 5 4 0 1 1 2 1 6 12 9 12 24 23 21 24 24 26 28 27 28 27 27 29 28 25 27 29 26 23 23 24 21 20 23 21 18 17 15 16 16 18 20 19 19 17 16 18 18 16 16 13 13 14 14 15 14 12 11 10 10 10 10 10 9 8 9 9 8 6 5 4 4 6 7 6
12 9 7 8 7 5 16 17 16 14 8 6 7 7 7 9 10 11 10 8 8 7 7 7 4 3 3 1 2 1 6 9 11 19 21 21 24 24 25 26 27 29 28 26 29 28 25 27 30 27 25 24 25 23 22 24 21 18 19 16 17 18 16 18 19 19 18 17 18 18 17 18 17 15 16 17 18 17 15 13 12 10 10 11 10 10 9 8 9 9 8 6 4 4 4 7 8
9 6 6 6 3 7 12 14 17 12 6 7 9 6 6 7 9 11 11 9 8 8 8 8 7 6 5 2 1 3 2 6 10 14 18 21 24 26 24 23 26 30 28 26 28 27 25 28 28 27 27 25 25 24 22 23 19 17 19 17 17 18 16 17 20 19 18 17 18 17 17 18 18 16 16 17 18 17 16 15 14 12 11 12 11 11 11 10 9 9 8 6 5 4 4 8 9
6 5 5 5 3 7 7 10 14 10 7 11 10 5 4 6 6 7 7 5 6 6 5 6 7 6 6 3 2 3 3 3 9 13 14 19 24 25 23 22 26 30 28 27 28 26 25 28 27 26 28 26 25 24 22 21 18 17 19 17 17 18 16 17 19 19 18 18 17 16 16 17 18 17 16 17 17 16 16 15 15 14 13 13 12 13 12 12 11 10 9 8 8 7 5 7 7
6 8 7 7 5 6 8 10 12 8 9 13 11 4 1 4 7 6 2 3 3 6 5 5 6 4 4 3 1 3 3 4 7 11 12 15 20 24 24 23 26 29 28 27 29 26 25 28 28 26 27 25 25 24 22 21 19 18 19 19 19 18 16 17 19 20 18 18 18 17 17 17 17 16 16 16 15 15 15 15 15 14 13 13 13 13 12 11 11 10 10 9 8 7 6 6 5
5 9 9 10 7 7 11 11 10 5 6 11 11 4 2 3 7 8 6 3 5 7 7 7 6 5 5 5 3 4 4 5 5 7 12 14 18 24 24 23 25 28 28 27 29 26 25 29 29 26 26 24 24 24 22 21 20 18 20 22 22 20 19 20 21 21 20 19 18 17 18 17 16 15 16 16 14 15 15 14 14 13 12 13 13 12 11 10 11 11 11 9 8 8 8 7 5
3 6 8 12 12 6 12 13 10 5 6 12 11 5 1 2 5 9 11 10 9 8 9 9 7 7 6 5 5 4 5 6 7 6 10 14 19 23 23 23 24 27 29 28 28 26 25 30 29 26 26 25 24 24 22 22 20 18 21 23 22 21 21 21 22 21 20 19 18 16 17 17 16 15 15 16 14 14 15 14 14 13 13 12 11 11 11 11 11 12 11 9 9 10 9 7 5
3 8 8 10 12 10 8 11 7 3 6 11 10 6 5 3 5 9 13 13 10 9 10 9 8 8 7 6 7 6 6 6 4 5 6 12 20 24 23 24 25 26 29 29 27 27 27 31 30 26 27 26 24 24 22 23 21 20 21 21 21 21 20 21 21 21 20 18 18 16 16 17 17 16 15 15 16 15 15 15 14 14 13 11 11 11 10 11 12 11 10 10 11 11 9 8 6
5 10 10 7 8 12 9 6 4 2 5 5 7 6 5 3 4 7 11 12 12 13 13 11 11 10 9 8 8 8 7 6 4 2 5 5 15 26 26 25 26 26 29 30 28 28 29 32 31 26 27 26 25 24 23 24 22 20 20 20 21 20 19 19 19 20 19 18 19 17 16 17 16 17 16 15 16 15 16 16 14 15 14 12 12 11 10 11 12 11 10 11 11 10 9 8 7
6 9 11 7 7 11 8 4 4 3 4 5 9 8 4 2 5 7 9 10 12 14 13 13 13 11 11 10 8 8 8 5 5 5 5 8 7 23 29 26 26 27 29 30 28 29 30 32 31 28 27 25 25 25 23 24 24 21 20 20 21 19 18 19 17 19 20 18 20 19 18 17 15 16 17 15 15 15 15 16 14 15 15 13 12 11 11 12 12 10 10 10 11 10 10 8 7
4 6 8 8 6 6 4 2 5 1 2 3 8 8 7 3 6 8 7 8 11 12 11 11 13 12 13 12 8 8 8 6 5 5 5 8 12 14 26 28 25 25 30 31 28 29 31 32 31 29 29 25 24 25 24 24 25 23 20 20 20 18 18 19 17 19 21 20 21 20 18 18 16 16 17 15 15 15 14 16 14 14 15 13 12 11 11 11 11 11 11 10 10 10 10 9 8
5 4 4 4 5 4 3 1 5 1 3 3 5 4 7 2 5 9 7 7 12 12 12 14 15 14 14 12 9 9 9 7 6 4 5 6 10 11 15 26 27 25 29 30 28 30 32 32 31 28 29 27 24 26 26 23 25 24 21 19 19 18 18 20 17 18 20 19 20 20 19 18 17 16 16 15 16 15 14 15 13 13 13 12 12 12 11 10 11 12 11 11 11 10 10 9 9
5 4 3 3 3 2 0 2 3 3 3 3 6 2 4 2 2 11 11 10 13 11 10 13 16 16 14 12 11 9 9 8 7 6 5 5 5 8 7 13 19 21 30 31 27 30 32 32 32 29 29 28 25 27 28 24 24 25 23 20 19 18 18 19 18 18 19 19 19 19 19 19 18 16 17 16 17 15 13 14 14 14 13 12 12 13 12 12 12 11 11 11 11 10 10 9 9
5 4 3 4 2 1 1 1 2 2 3 6 9 1 3 1 3 8 10 10 12 10 9 11 13 14 13 11 10 9 8 9 7 7 7 5 6 5 3 6 8 10 22 33 29 29 32 31 33 30 29 28 25 28 29 26 25 25 24 21 19 19 19 19 19 19 19 19 18 17 18 20 18 17 17 17 16 16 14 14 15 14 13 13 12 12 13 13 12 12 11 10 10 10 9 8 8
5 4 3 4 3 3 2 1 2 1 4 8 8 1 3 3 2 5 9 9 9 9 8 9 10 10 10 10 9 9 8 8 8 7 8 8 8 8 8 14 17 14 14 25 30 31 31 32 33 31 29 27 25 27 28 27 26 25 25 23 20 21 19 18 19 19 19 20 18 17 17 18 18 17 17 15 14 16 16 15 15 14 14 14 13 12 12 12 12 12 11 10 10 10 9 8 8
4 4 3 4 4 4 3 2 5 5 4 3 2 2 3 2 4 5 5 7 7 8 8 8 8 8 9 8 8 10 8 8 9 8 8 12 15 14 11 16 24 22 16 17 26 32 32 33 34 32 30 28 25 26 27 27 26 24 24 24 22 22 20 18 19 19 19 19 19 18 17 17 17 16 16 15 14 16 18 16 15 15 14 15 14 12 13 13 13 13 11 10 11 10 9 8 8
3 4 4 5 4 2 3 3 5 6 4 1 2 5 3 2 4 7 6 5 7 10 9 8 8 7 7 6 6 8 8 7 8 9 8 11 14 16 17 19 24 26 20 14 16 28 33 34 34 32 30 29 26 26 26 26 25 24 24 24 22 22 22 20 19 19 19 18 18 18 16 15 16 15 15 15 14 16 18 16 16 16 15 14 14 13 13 13 13 13 11 11 11 10 9 9 8
3 4 4 3 4 3 3 1 3 2 3 1 4 10 8 4 2 1 1 1 5 9 10 9 9 9 8 6 6 5 4 4 4 6 6 7 10 13 16 18 16 17 17 10 7 19 28 32 35 33 31 30 27 26 26 25 25 24 24 25 24 23 23 22 20 19 18 18 18 18 17 16 15 15 14 14 14 15 16 15 14 16 15 14 14 14 13 13 12 13 12 11 11 10 9 9 10
6 3 2 2 2 3 1 3 0 2 1 1 2 5 5 2 2 7 8 5 5 8 10 10 10 10 9 8 8 7 5 4 3 3 4 3 8 13 15 14 10 11 18 16 10 13 20 26 31 31 30 30 27 25 26 25 25 25 24 25 25 24 23 23 22 20 19 19 19 18 18 17 16 15 15 15 15 15 16 15 15 15 16 15 14 14 14 13 13 13 12 11 11 10 9 9 11
7 4 2 2 3 1 1 2 2 2 2 4 3 2 2 2 1 4 9 8 8 9 9 9 10 10 9 8 7 7 4 3 3 2 2 2 2 8 13 16 16 16 22 21 15 16 20 24 28 29 30 30 28 25 24 24 24 24 23 24 25 25 24 24 23 21 20 20 20 19 18 18 17 16 16 16 18 18 17 17 16 16 17 16 15 15 14 14 14 13 12 12 11 11 10 11 12
5 4 1 2 1 1 1 1 2 3 1 4 4 1 1 2 3 2 2 3 6 11 10 9 10 10 9 8 7 6 4 4 6 5 3 3 4 6 9 14 15 12 14 16 15 17 19 20 22 26 30 31 29 27 25 23 24 23 22 23 25 26 25 25 24 22 22 21 20 20 19 19 18 18 17 17 18 19 19 19 18 17 17 17 16 16 15 15 14 13 13 12 11 12 13 13 14
3 3 2 3 1 2 1 3 4 4 1 4 6 4 1 2 2 2 1 2 4 11 11 9 10 10 9 9 9 7 7 9 9 9 8 5 4 7 9 12 14 10 6 7 9 10 11 9 8 10 14 18 21 24 24 22 24 24 19 19 24 26 25 25 25 23 23 22 22 21 20 20 19 20 20 18 18 19 19 19 19 19 18 17 18 18 17 17 16 15 14 13 13 14 14 14 14
Wind_Direction
171 169 166 164 155 157 205 189 56 4 219 280 271 272 241 124 73 94 222 193 171 155 183 186 177 166 107 100 109 71 39 98 136 124 138 138 146 149 149 153 149 144 145 144 144 145 146 144 137 133 133 133 129 126 125 121 118 114 113 109 108 107 105 103 102 100 97 97 97 97 98 101 102 102 101 101 102 104 108 111 113 114 115 116 116 114 113 110 109 109 109 109 107 108 112 112 111
169 169 170 182 181 173 252 237 89 5 219 287 235 170 235 140 79 184 183 144 302 222 208 150 102 84 96 93 85 68 37 29 96 95 102 131 140 146 150 149 144 144 145 144 146 145 146 146 141 140 140 138 133 130 126 121 118 114 111 107 107 106 105 102 101 100 100 100 101 102 103 103 103 103 102 101 103 108 111 110 109 112 116 117 117 115 114 112 111 111 111 109 109 110 112 112 113
160 175 204 205 214 218 276 29 145 260 271 292 250 195 257 158 155 209 146 115 252 249 185 94 78 74 81 70 56 76 71 43 93 97 115 134 139 146 148 144 140 144 144 145 148 147 146 145 144 144 143 140 135 131 125 121 118 113 111 110 110 109 108 106 104 103 102 104 105 105 104 103 103 103 103 101 104 110 112 111 110 111 115 117 116 116 113 111 111 111 109 109 111 113 112 111 111
177 203 217 204 217 244 313 56 226 259 253 276 298 224 211 351 166 178 101 138 209 260 112 91 77 80 83 87 87 86 95 74 93 104 125 141 143 144 145 141 140 141 143 148 151 151 147 145 144 143 142 138 133 129 124 121 117 115 116 114 114 113 112 109 106 104 103 106 105 102 101 101 101 101 102 102 105 110 113 113 114 113 114 116 115 116 113 110 110 111 109 109 111 113 112 110 109
197 206 216 222 245 356 55 277 243 275 252 183 314 254 181 238 182 140 105 140 133 324 54 101 100 94 82 86 100 95 110 103 100 111 123 137 141 142 143 141 139 139 144 149 151 149 145 144 142 140 138 134 131 127 124 121 120 120 120 118 117 115 113 110 107 105 104 103 102 100 99 99 98 99 101 102 104 108 112 114 116 116 115 116 116 116 114 111 111 112 110 110 111 113 113 111 110
204 220 230 224 212 77 199 298 314 280 243 156 242 254 176 194 177 125 118 42 60 315 295 94 101 95 80 76 85 102 124 119 116 123 127 136 141 141 141 139 137 140 146 150 149 145 143 144 141 138 134 131 131 128 126 125 126 125 123 121 118 115 111 109 108 105 104 102 100 100 98 98 98 99 100 101 103 104 109 113 116 116 116 116 117 118 115 112 112 111 111 112 113 114 114 111 111
204 229 249 211 117 60 255 291 297 284 244 151 276 227 191 174 143 124 122 71 57 292 286 95 105 98 89 96 95 100 111 118 124 131 134 138 141 140 140 138 138 142 149 151 147 143 143 143 141 138 134 135 133 130 129 130 130 125 123 120 116 113 111 110 109 107 105 102 100 98 97 97 98 100 101 102 104 105 109 113 115 116 117 118 119 120 116 113 113 113 113 116 116 115 114 111 110
226 198 351 186 98 18 291 312 266 266 346 53 325 273 207 144 139 131 114 105 119 257 298 99 107 98 92 95 97 107 111 116 123 130 136 137 140 141 139 138 139 142 148 148 145 143 142 142 142 139 138 138 133 133 133 133 129 123 122 118 115 111 111 111 109 106 104 102 100 98 97 98 99 100 102 104 106 107 108 111 114 114 115 117 121 121 118 115 115 114 114 118 119 116 114 111 109
229 201 20 17 97 314 263 308 267 253 14 346 322 278 223 113 132 120 107 313 137 191 112 104 108 102 102 100 102 111 112 119 125 130 135 138 140 138 136 139 141 142 144 145 143 142 142 143 141 140 140 137 133 135 134 131 125 123 122 117 114 111 110 109 107 104 102 101 100 100 100 100 100 101 102 105 107 107 107 109 111 112 112 115 121 121 119 118 117 115 114 118 121 118 116 112 108
220 93 42 314 189 302 276 251 257 98 50 304 305 285 326 104 137 113 128 108 62 87 104 102 100 104 111 107 106 113 119 126 128 131 135 137 138 135 134 137 141 144 144 144 144 143 143 142 140 141 140 137 136 135 132 128 124 123 120 116 113 111 111 108 106 104 102 102 102 102 102 101 100 101 102 104 107 108 109 109 110 110 111 115 119 119 120 120 118 116 116 119 120 119 117 113 107
100 38 166 271 295 298 298 276 274 12 170 270 337 309 335 49 120 90 94 83 33 103 111 106 104 108 109 100 103 119 125 131 131 135 137 137 137 137 134 135 142 145 144 144 144 142 141 140 140 140 139 138 136 134 131 129 127 124 119 117 114 113 112 110 109 106 105 105 106 104 101 102 101 101 101 103 106 109 110 110 111 110 109 114 118 119 120 121 121 118 118 120 120 120 121 117 107
116 94 152 289 297 272 283 292 277 221 185 104 354 304 338 349 70 96 98 98 188 145 116 110 115 115 107 99 114 124 128 133 134 138 140 138 138 138 136 137 143 144 143 144 142 140 141 142 142 141 140 138 135 134 132 131 129 124 120 118 116 116 114 112 112 109 109 109 108 104 101 102 102 103 103 103 105 108 110 110 112 111 111 114 117 121 122 123 123 121 121 121 121 123 126 122 113
126 143 124 253 227 150 282 285 215 176 173 132 181 273 24 17 46 107 116 122 164 119 113 114 121 117 109 111 131 130 132 137 139 140 142 140 139 138 136 138 140 141 143 144 142 142 144 143 142 141 140 138 136 136 134 133 130 125 122 120 119 118 116 115 113 112 113 112 109 104 102 102 103 105 104 102 104 107 110 112 114 114 115 116 118 121 123 125 125 124 122 122 125 126 128 126 120
127 134 133 258 241 219 264 273 198 167 161 135 144 230 110 108 221 332 123 127 87 106 120 121 125 114 114 126 135 137 138 141 142 139 138 136 135 136 136 138 140 142 145 144 144 145 145 143 141 142 142 140 138 137 136 134 130 127 125 123 122 119 118 117 115 114 115 117 114 108 104 103 103 105 106 104 104 107 109 112 116 118 118 117 120 123 126 127 125 123 121 125 129 130 131 130 124
130 95 111 321 312 260 273 314 197 160 121 123 144 194 118 79 247 14 59 127 104 101 107 121 132 117 132 145 142 146 144 143 141 135 132 132 136 137 136 137 139 142 145 145 146 146 145 145 144 144 145 143 141 140 138 135 132 129 128 125 123 122 120 119 119 117 117 120 118 112 107 103 104 106 108 105 104 107 109 113 116 118 119 119 122 124 127 128 126 124 126 130 132 132 134 131 124
123 96 83 350 309 301 336 359 109 125 111 126 180 203 108 72 285 67 297 224 106 66 24 134 143 125 142 143 137 145 147 144 138 134 132 133 136 134 134 137 140 142 145 147 146 146 150 150 146 147 148 145 145 144 139 136 135 132 129 126 125 124 122 123 122 120 120 120 116 111 106 103 104 108 110 107 106 108 109 114 117 119 120 122 124 124 125 128 129 128 128 130 129 129 131 129 126
72 71 81 22 305 307 299 276 107 123 127 138 196 216 123 123 252 231 239 321 98 117 5 137 134 129 137 134 139 146 147 140 134 133 133 135 135 134 137 140 141 143 148 151 148 152 157 152 147 149 147 146 149 147 142 137 138 136 131 128 127 125 124 126 125 124 123 118 114 108 105 104 103 106 110 111 109 109 111 114 117 120 122 123 123 123 125 128 129 126 124 126 127 128 128 128 126
87 50 103 183 279 292 298 345 109 126 134 149 198 220 131 137 187 202 228 59 96 147 82 135 132 130 130 131 139 143 139 133 131 134 136 140 140 141 144 145 146 149 154 153 152 157 157 151 151 152 148 149 150 147 144 140 141 138 134 133 130 129 128 128 129 128 126 120 116 112 110 106 104 105 107 111 111 111 113 116 120 120 120 121 123 126 127 127 126 122 121 123 126 126 125 125 124
102 124 137 216 242 257 266 170 122 133 138 144 181 222 129 139 165 145 141 101 125 155 140 147 133 127 129 135 139 137 135 132 133 136 140 146 146 147 147 147 149 150 151 150 152 157 156 153 156 156 151 153 150 147 146 143 143 140 138 139 135 134 131 130 133 135 131 126 123 121 118 114 111 108 108 111 111 112 113 119 123 120 118 120 123 127 129 128 124 122 123 124 126 125 122 121 121
233 202 163 228 239 244 214 189 133 131 143 142 157 164 108 129 152 116 127 113 129 158 127 139 135 134 137 140 140 137 137 136 137 141 146 150 149 149 147 144 145 146 148 149 152 155 157 158 161 159 153 151 150 151 148 144 144 143 142 143 140 138 135 135 137 139 136 132 132 130 125 126 124 118 118 117 115 117 118 123 126 124 122 123 126 130 131 131 127 126 127 127 128 126 122 120 119
226 215 167 194 219 220 181 169 133 136 148 137 134 118 101 97 85 118 130 108 126 213 318 141 140 140 140 142 142 141 139 139 141 144 147 147 147 148 144 143 145 149 150 148 151 155 158 162 164 159 153 155 155 154 151 148 148 145 145 146 146 144 142 143 140 141 140 138 140 136 132 136 135 130 126 124 122 123 123 126 128 128 127 127 130 131 131 131 130 130 130 131 131 130 127 123 121
181 227 203 186 205 189 163 158 141 146 139 123 125 117 121 105 73 112 133 128 208 180 278 158 144 142 142 144 145 143 140 141 145 147 149 147 146 147 143 145 149 151 153 152 154 158 159 163 166 160 158 161 159 156 155 153 152 152 153 153 154 152 150 150 149 150 145 144 148 142 141 143 141 136 131 130 128 126 126 129 130 130 130 131 131 129 130 130 131 133 134 135 135 138 137 135 133
162 241 234 213 219 182 164 160 151 149 134 130 133 119 130 117 91 70 107 130 193 146 185 162 143 144 144 145 148 143 141 146 149 152 153 146 144 148 145 147 152 153 156 157 157 160 159 164 168 162 161 164 162 162 160 159 160 164 164 161 160 156 153 155 158 160 152 153 155 145 142 144 144 141 137 136 134 132 135 136 134 133 133 135 134 133 136 138 141 146 147 149 152 160 158 157 156
141 169 252 281 239 186 167 159 157 151 135 128 128 127 135 122 110 97 68 116 145 130 148 133 138 144 145 147 149 142 147 155 154 155 151 144 144 145 144 148 154 156 158 158 160 160 161 168 167 162 164 168 169 168 166 168 168 169 167 165 164 159 157 159 161 163 158 160 158 145 141 143 144 143 142 141 139 141 143 142 137 133 134 137 139 143 148 149 153 162 169 180 191 191 191 188 172
146 142 186 300 238 175 165 157 158 147 127 119 125 121 116 122 126 115 108 146 151 141 142 121 140 146 146 149 148 144 155 156 153 158 150 145 147 140 142 149 152 155 156 158 163 163 162 167 166 164 167 170 173 171 169 169 168 168 165 165 165 161 160 161 160 161 161 160 157 152 147 146 148 147 148 146 144 145 145 145 143 141 142 145 148 151 155 158 162 167 179 207 205 198 190 180 166
184 147 153 199 218 167 159 160 158 144 130 137 128 105 89 117 131 99 103 156 132 136 148 153 150 149 149 152 150 149 159 153 154 163 150 146 145 137 143 152 150 152 153 157 165 164 162 166 169 167 167 169 172 171 167 165 167 167 165 166 164 159 159 161 162 159 159 160 160 161 156 154 156 157 155 149 149 152 149 146 147 149 150 150 152 154 153 158 160 158 192 195 180 168 151 152 153
162 149 134 141 247 186 158 163 155 140 140 148 129 112 104 101 77 99 216 176 113 138 157 173 161 152 154 155 151 153 161 155 159 167 152 144 142 140 149 153 151 154 155 160 168 165 161 165 169 168 166 168 168 166 164 162 163 161 162 167 162 158 160 164 165 156 154 164 168 163 157 157 159 160 154 147 150 155 151 149 150 151 149 147 147 145 141 141 137 128 145 146 149 152 150 155 157
156 154 147 176 226 198 155 158 154 143 139 141 123 107 108 90 349 202 181 165 117 145 160 174 165 155 158 155 151 160 163 158 164 170 154 143 144 148 153 153 153 159 160 164 167 161 159 160 165 168 166 168 167 163 161 159 157 154 156 162 162 161 163 168 168 157 151 163 170 161 152 156 154 152 148 144 149 151 149 149 149 146 144 141 137 134 130 130 130 128 137 136 142 151 154 160 160
201 159 158 189 207 163 149 161 164 153 135 142 129 98 112 179 187 184 163 135 108 137 162 174 163 155 158 153 154 166 158 157 169 173 155 149 152 154 154 152 155 162 164 161 159 157 158 158 161 168 168 168 166 160 158 158 155 151 150 154 158 159 161 167 164 155 145 147 161 162 154 157 153 146 145 148 151 153 153 150 146 145 142 138 133 130 129 130 128 133 145 145 151 156 157 164 164
261 183 163 183 166 140 162 167 158 146 135 159 154 94 174 193 165 172 144 130 126 124 174 181 162 158 161 152 157 164 156 165 177 172 160 156 155 153 151 151 158 167 163 156 157 160 160 156 157 165 168 167 163 155 152 155 152 147 148 153 153 151 155 159 153 149 140 133 148 160 158 156 150 144 147 152 153 153 153 147 141 140 138 135 134 132 129 126 122 131 147 153 162 158 154 167 169
276 238 173 159 111 144 176 160 143 129 145 179 187 88 170 161 155 177 139 137 150 150 190 184 161 161 157 145 159 167 164 178 178 163 159 156 149 149 149 151 163 170 157 154 162 163 158 155 157 163 166 165 162 155 149 150 148 144 150 156 149 143 146 148 143 142 138 132 142 155 159 154 147 145 147 150 151 150 148 141 133 130 131 132 132 132 128 128 127 131 142 145 153 150 146 158 163
277 252 199 162 122 139 172 164 147 132 158 196 205 94 145 150 169 188 149 145 161 166 188 177 164 166 149 143 167 175 168 176 167 156 156 151 145 148 150 154 164 163 153 159 165 159 156 158 159 161 164 163 163 157 150 150 152 152 157 163 155 143 141 142 142 139 135 138 143 146 150 148 143 146 146 147 147 145 143 138 128 124 127 126 127 132 138 142 135 134 145 144 148 151 151 161 160
248 224 215 180 144 148 160 170 159 141 154 195 197 126 148 170 173 180 150 148 163 161 114 119 177 173 149 145 173 179 162 169 162 154 154 149 147 150 152 155 158 156 158 165 159 154 159 160 159 161 162 162 162 159 156 155 156 157 158 162 161 152 146 147 151 147 138 143 147 142 143 143 142 146 145 144 144 143 142 139 136 138 140 142 151 159 156 147 134 139 143 139 149 159 165 172 163
237 207 237 228 166 154 151 157 163 144 148 172 153 137 159 155 150 154 176 155 158 159 113 84 275 179 144 153 176 173 152 169 161 148 153 153 152 153 154 154 153 154 163 163 153 154 160 158 158 161 161 160 161 161 161 159 156 155 156 159 163 161 159 156 155 155 149 152 156 150 148 144 144 149 147 140 141 146 145 145 154 161 165 168 168 162 155 152 141 138 129 126 149 157 164 171 168
218 183 211 245 185 158 158 168 171 156 153 154 139 141 145 129 136 161 218 178 157 153 130 128 280 21 102 159 176 161 150 179 159 145 157 162 157 155 151 150 151 156 162 156 152 157 159 157 158 160 162 160 162 163 159 156 153 155 158 158 162 164 164 162 160 161 161 159 159 159 158 151 144 146 145 136 138 146 147 153 163 168 172 170 165 155 151 158 147 132 114 117 140 146 167 180 179
244 214 208 230 207 164 160 163 166 162 151 145 150 156 149 140 151 179 203 188 155 145 130 128 354 40 29 199 182 153 156 188 158 149 163 167 159 156 149 148 151 156 159 154 154 159 159 161 160 160 163 161 162 162 156 155 155 158 163 162 163 162 159 160 160 161 166 166 160 159 163 159 148 142 142 138 145 153 153 160 164 168 173 168 162 154 147 150 145 138 129 132 145 134 148 160 158
268 282 271 256 253 170 153 155 168 164 143 150 166 155 156 153 161 180 182 169 160 151 142 146 124 58 237 281 279 158 162 182 158 152 166 166 159 158 150 151 154 155 157 155 156 159 162 164 161 160 164 163 163 163 160 161 161 161 166 168 165 160 161 163 158 157 168 172 163 162 165 165 161 155 154 156 160 162 163 168 168 166 172 170 166 159 151 150 148 151 154 162 171 146 140 146 146
272 285 289 286 289 156 143 147 159 162 138 153 169 149 160 162 163 175 170 163 169 168 161 165 168 173 217 274 337 232 171 176 159 153 167 164 156 156 153 154 154 153 156 155 156 159 162 163 160 161 165 165 166 165 165 168 168 166 167 170 166 161 166 169 164 163 170 172 166 167 170 170 169 166 164 166 166 166 168 175 176 169 162 163 164 159 157 158 156 160 161 162 170 163 159 168 167
266 279 279 283 300 115 131 143 152 158 133 145 165 155 163 162 160 170 168 169 174 173 166 167 174 184 210 207 127 278 251 183 165 158 169 163 153 156 155 153 152 153 156 156 158 160 160 160 160 164 167 168 169 167 169 172 170 167 167 170 170 165 166 168 166 166 169 169 166 170 175 175 175 172 168 169 169 168 171 174 176 173 162 160 162 161 164 165 162 164 170 172 172 164 149 164 173
246 257 265 268 228 130 134 151 152 157 140 143 152 143 145 148 151 165 165 162 161 161 143 151 180 191 202 200 167 220 263 228 178 166 169 160 153 157 158 154 150 153 157 157 161 163 164 164 164 168 169 170 172 169 172 174 167 168 172 172 172 169 170 170 166 164 168 169 167 173 179 177 178 178 173 171 170 170 172 172 173 174 170 168 167 166 168 170 170 173 181 184 184 181 169 173 184
237 239 242 260 250 136 140 157 149 151 148 140 127 91 83 156 160 161 90 36 133 152 137 147 180 181 179 184 192 220 247 262 198 172 169 161 154 157 161 159 153 156 160 160 166 169 169 169 170 171 171 172 175 173 175 175 171 175 175 168 166 168 169 168 164 162 169 171 170 177 183 180 180 182 178 175 172 169 172 173 171 173 174 171 169 169 169 170 174 179 182 183 185 182 168 166 170
239 234 232 255 265 126 146 161 139 137 167 148 127 95 285 194 173 158 123 140 186 172 172 181 187 181 180 183 203 236 241 260 249 188 172 163 154 156 164 166 158 159 164 165 169 173 172 171 173 176 174 174 178 177 176 177 178 177 169 160 159 160 160 166 167 166 172 174 176 182 184 180 179 181 177 176 177 172 172 173 169 171 171 167 170 173 174 176 176 175 176 181 179 165 145 135 131
249 243 224 244 259 205 172 168 151 167 181 165 153 132 164 217 199 163 144 164 193 196 190 190 192 190 192 189 191 221 235 246 274 248 187 165 155 159 166 171 166 162 167 169 171 175 176 172 174 179 177 178 181 180 178 180 180 176 169 164 166 166 165 170 170 171 175 177 179 186 183 178 180 184 179 178 184 178 174 173 170 174 173 171 177 177 176 180 176 173 177 183 177 165 156 143 130
235 256 234 223 251 258 203 169 171 187 145 165 175 131 122 200 209 169 151 155 177 200 200 192 195 193 192 198 192 196 215 221 260 283 217 171 158 163 169 172 172 167 168 171 174 177 178 175 176 178 178 179 183 182 181 183 182 178 174 171 172 175 176 175 172 175 180 180 183 186 182 180 184 187 185 185 190 183 175 173 172 177 175 172 176 176 177 179 174 172 176 180 177 172 169 155 143
239 258 259 223 226 256 243 174 173 185 128 174 196 126 104 182 174 160 159 158 172 192 194 189 193 193 189 200 202 191 196 204 202 239 257 215 165 165 170 174 174 171 170 173 177 179 178 177 178 178 178 181 183 182 182 184 185 180 178 176 173 177 182 179 178 182 182 179 182 183 182 185 186 188 191 191 190 186 179 176 176 180 177 172 176 179 181 177 174 175 177 180 180 182 178 159 151
239 255 278 278 225 237 241 168 146 188 164 183 195 162 121 163 164 160 170 174 180 187 187 187 188 188 188 193 197 186 182 194 199 199 241 280 216 170 169 174 177 173 173 176 179 179 176 175 179 181 181 181 182 184 183 185 186 180 179 179 174 176 183 180 181 185 183 180 179 179 184 189 187 190 194 190 189 190 185 180 180 181 178 178 182 183 179 176 178 178 175 175 179 185 182 170 164
253 240 270 294 276 261 261 142 98 122 218 203 208 177 128 148 183 174 185 186 179 176 178 184 182 184 190 191 185 180 181 180 188 193 203 265 273 201 171 172 180 177 174 177 178 177 175 174 178 182 184 184 183 184 183 185 187 183 179 180 177 178 177 177 179 179 180 182 180 179 184 189 190 191 191 189 189 192 189 184 184 180 177 181 184 179 174 178 181 176 170 171 179 188 185 179 178
269 240 242 282 297 301 278 167 91 120 247 237 237 172 109 111 186 181 201 190 172 172 174 178 179 181 188 188 178 174 181 173 169 181 186 223 267 252 187 174 182 181 173 177 178 173 174 175 177 181 184 186 186 184 183 185 188 187 184 182 183 181 173 175 180 173 172 178 179 181 183 186 192 191 189 190 191 195 195 187 187 187 183 183 182 177 175 180 180 172 175 180 184 192 188 184 184
246 239 212 218 276 339 103 143 116 198 237 255 249 176 99 4 132 165 182 176 171 174 172 172 173 178 182 182 174 169 174 168 162 166 173 190 219 259 244 183 185 186 173 174 177 171 173 176 177 179 183 187 188 185 185 186 187 189 188 183 184 185 179 180 184 176 172 175 176 182 185 186 192 193 192 194 194 198 198 188 191 197 193 188 182 178 180 184 184 180 182 182 182 187 185 184 187
220 227 181 180 230 59 115 115 90 195 233 255 259 235 109 271 99 141 157 156 164 164 166 170 169 172 174 172 165 160 169 166 163 169 167 182 193 205 222 181 215 226 181 174 175 171 172 175 178 180 182 187 189 186 186 187 188 190 189 185 185 188 185 184 187 183 180 179 178 184 188 188 193 196 197 200 198 201 202 193 198 202 197 195 189 184 187 187 187 187 186 181 180 183 181 185 193
214 234 208 201 212 149 153 134 106 211 240 241 247 212 143 186 124 126 127 126 141 143 150 162 163 167 164 164 159 157 170 164 163 177 162 168 200 195 166 177 207 238 212 183 175 171 173 174 178 181 182 186 189 187 188 189 190 191 191 189 188 189 189 188 190 190 189 187 185 188 191 191 197 199 201 204 201 203 205 200 204 207 201 200 197 194 194 190 187 190 191 188 186 183 180 186 194
231 237 240 229 212 140 149 196 180 196 222 241 229 110 129 130 38 27 70 92 110 120 120 126 142 154 149 157 158 155 171 172 170 183 162 162 190 200 187 188 199 211 227 209 180 171 173 175 178 182 183 186 188 188 190 191 192 192 193 194 192 192 193 192 191 192 195 193 191 193 195 196 201 200 202 207 206 207 207 202 204 209 206 202 203 203 200 193 191 195 198 198 195 190 186 187 194
240 234 233 240 243 166 157 231 226 198 189 211 99 103 105 91 41 3 358 36 86 107 107 100 111 121 126 139 142 146 164 170 170 178 168 160 173 185 187 192 200 205 220 235 191 173 174 176 177 179 182 184 188 190 192 193 195 195 196 196 196 195 196 197 194 193 197 198 196 197 199 200 202 200 201 207 210 210 207 204 205 208 209 208 207 209 210 204 199 202 205 202 199 196 196 195 200
233 224 213 242 281 260 157 145 274 226 170 167 144 143 147 151 136 110 259 104 92 108 116 111 110 106 102 98 90 101 122 119 132 152 157 158 165 180 187 187 197 207 214 234 212 179 175 176 177 177 180 183 186 190 192 194 197 199 199 199 199 200 200 201 198 197 200 200 200 200 201 203 202 201 202 204 207 205 202 205 207 206 210 213 210 210 216 215 210 212 211 204 200 198 200 204 209
259 240 200 184 247 265 166 123 280 268 165 107 104 146 146 114 146 160 157 151 129 123 119 113 111 108 102 89 79 71 58 51 66 102 115 133 172 187 190 182 176 193 201 202 201 184 170 171 176 176 177 182 185 188 191 193 196 199 201 202 202 203 203 204 202 201 203 203 205 205 203 204 202 201 205 205 206 205 204 208 209 209 213 214 211 212 216 217 216 219 218 211 207 206 210 216 217
255 256 287 219 187 169 174 146 171 241 189 119 73 333 308 352 320 166 144 136 134 123 102 90 87 86 92 92 88 83 68 55 62 93 121 85 149 178 183 186 180 184 195 193 188 184 170 165 172 175 175 179 182 185 188 192 195 198 202 204 205 205 205 205 203 204 206 206 210 211 207 207 205 201 206 210 210 207 207 210 210 213 215 213 213 216 219 220 218 222 224 218 214 215 222 231 230
222 225 311 279 224 135 250 277 209 234 204 126 123 128 255 246 290 311 93 103 111 106 93 83 79 69 69 72 74 89 95 79 65 62 95 124 158 158 156 167 163 164 190 187 173 175 170 164 169 173 176 180 184 184 186 191 193 195 201 206 207 207 208 209 206 206 209 208 210 213 211 211 210 205 206 213 213 208 208 211 211 214 216 215 215 216 222 227 224 224 227 224 221 222 226 235 239
232 174 150 260 273 133 242 299 275 254 199 136 135 122 127 193 203 204 165 1 58 95 98 92 85 73 65 58 50 52 63 66 60 49 47 65 126 129 112 118 126 122 133 133 113 105 108 112 112 122 154 180 190 189 188 191 190 190 199 209 210 210 210 211 210 210 213 210 208 213 212 212 215 211 206 210 212 209 210 213 214 215 217 218 219 218 221 227 228 226 227 227 228 229 231 237 241
Height
778 780 780 782 781 784 786 787 804 805 806 818 810 806 802 790 791 795 796 793 791 785 780 781 777 773 776 783 788 786 788 792 795 807 818 809 804 812 813 815 816 817 820 820 822 822 823 824 825 826 827 828 829 829 830 830 830 830 830 831 831 831 832 832 833 834 834 835 836 836 837 838 838 839 839 840 840 840 840 840 840 841 841 841 842 842 843 843 843 844 844 844 844 844 845 845 846
779 780 781 783 782 787 789 786 809 814 812 820 808 804 798 788 794 796 794 793 789 779 773 773 771 771 773 775 777 782 793 790 784 794 802 802 807 812 813 816 816 818 820 821 822 823 824 825 826 827 828 829 829 830 830 830 831 830 831 831 831 831 832 833 833 834 835 835 836 837 838 838 839 839 839 840 840 840 840 840 841 842 842 842 843 843 843 844 844 844 845 845 845 846 847 847 847
780 781 781 785 784 785 788 792 812 817 818 821 809 799 792 792 796 791 787 790 785 774 771 770 771 774 775 782 784 790 803 794 784 791 800 805 808 811 815 816 817 819 820 821 823 823 825 826 827 828 828 829 830 830 831 831 831 831 831 831 832 832 832 833 834 835 835 836 837 837 838 839 839 840 840 840 840 840 840 841 841 842 843 843 843 844 844 845 845 845 845 846 847 847 848 849 849
779 781 782 784 787 788 794 804 811 814 818 817 809 797 791 794 791 787 786 786 781 774 772 772 778 776 776 791 791 792 803 798 790 792 800 806 807 810 814 816 818 819 821 822 823 824 826 827 828 829 829 830 830 831 831 831 831 831 832 832 833 833 833 834 834 835 836 837 837 838 838 839 840 840 841 841 841 841 841 841 841 843 843 844 844 845 845 845 846 846 847 848 848 848 850 850 851
778 780 781 783 791 794 799 807 808 813 814 809 807 798 790 791 788 786 786 783 778 778 774 773 783 777 775 787 788 795 803 799 797 795 800 806 808 811 814 816 818 819 821 822 823 825 826 828 828 829 830 830 831 831 832 832 832 833 833 833 834 834 834 834 835 836 836 837 838 838 839 839 840 841 841 841 841 840 841 842 842 843 844 845 845 845 846 846 847 847 848 849 849 850 851 852 852
778 780 780 781 788 791 802 811 811 812 803 799 803 795 788 788 786 784 784 782 777 778 776 774 781 781 784 786 785 793 796 795 799 799 801 806 810 812 814 816 818 819 821 821 824 825 827 828 829 830 830 831 832 832 832 833 833 833 834 834 834 834 835 835 835 836 837 837 838 839 839 840 841 842 842 842 841 841 841 842 843 844 845 845 846 846 847 848 848 849 849 850 851 852 852 853 853
777 782 782 785 790 792 809 815 813 811 796 792 796 790 785 784 783 783 785 786 784 782 776 775 776 783 794 790 790 792 791 794 796 800 803 806 811 813 815 817 818 820 821 822 824 825 827 828 829 830 830 831 831 832 833 833 834 834 835 835 835 835 835 836 836 837 837 838 839 839 840 841 842 842 843 842 842 841 842 843 844 844 845 846 846 847 847 848 849 850 851 851 852 853 854 854 855
777 784 785 792 801 802 812 814 809 806 795 789 790 787 781 780 781 783 788 789 790 786 777 777 774 786 798 791 798 797 792 797 796 802 805 807 812 814 816 817 819 820 822 823 824 826 828 829 830 830 831 832 832 832 833 834 834 834 835 835 835 836 836 837 837 837 838 839 839 840 841 842 843 843 843 843 842 841 842 843 844 846 846 847 847 848 849 849 850 851 852 853 853 854 855 856 856
777 783 789 796 807 810 812 812 807 800 797 792 789 785 778 780 782 783 790 790 788 785 781 779 776 789 800 796 802 797 794 801 800 805 807 809 812 814 817 817 819 820 822 823 825 827 828 830 830 831 832 832 832 833 834 834 834 835 835 835 836 836 837 837 838 839 839 840 840 841 841 842 843 843 844 844 843 842 842 843 845 846 847 848 848 849 850 850 851 852 853 854 855 855 856 857 858
779 784 793 801 808 813 813 812 808 801 799 794 791 786 782 785 785 784 789 791 788 785 782 778 780 790 798 801 803 798 798 802 802 807 809 811 813 815 817 818 819 820 822 824 826 828 829 831 831 832 833 833 834 834 834 835 835 836 836 836 836 837 837 838 839 840 840 840 841 841 842 843 844 844 845 844 844 844 843 844 845 847 848 849 849 850 851 851 852 853 855 855 856 857 857 858 858
787 790 793 804 810 815 815 811 807 802 797 793 792 788 788 787 784 786 787 790 789 788 783 781 789 792 796 803 803 799 800 803 804 807 810 812 814 816 818 819 820 821 823 825 827 828 829 831 832 833 833 834 834 834 835 835 836 836 836 836 837 837 838 839 840 840 841 841 841 842 843 844 844 845 846 846 846 846 845 846 847 848 849 850 851 852 852 853 854 854 856 856 857 858 858 859 860
792 797 796 808 813 812 810 808 806 801 797 797 797 789 788 789 787 789 788 791 791 790 785 784 789 789 800 809 804 800 801 805 806 808 811 813 815 817 819 820 821 823 824 826 828 829 830 831 832 834 834 835 835 835 835 835 836 836 837 837 838 838 839 840 840 841 842 842 843 843 844 845 846 846 847 847 848 848 847 847 848 849 850 852 852 853 854 854 855 856 857 857 858 859 859 860 860
789 797 800 809 807 807 806 806 805 801 801 799 798 791 786 790 792 790 789 792 793 794 787 782 783 785 802 810 804 802 803 806 807 809 811 813 816 818 820 821 823 824 826 827 828 829 831 832 833 834 834 835 835 836 836 836 836 836 837 838 839 839 840 841 841 842 843 843 844 845 845 846 846 847 848 848 849 849 849 850 850 851 852 853 853 854 855 856 857 857 858 858 859 860 860 861 862
783 790 797 807 803 803 804 806 805 804 805 797 795 792 786 789 791 789 790 796 797 794 784 777 779 789 802 808 809 806 803 806 807 809 811 814 817 818 821 823 824 826 827 828 829 830 831 833 833 834 835 835 836 836 837 836 837 837 838 838 839 840 841 842 842 843 844 844 845 845 846 847 848 848 849 849 850 850 851 851 851 852 853 854 855 855 856 857 857 857 858 859 860 860 861 862 863
779 786 794 805 805 803 801 804 803 804 804 795 794 792 788 789 787 788 789 794 796 787 780 778 779 791 803 807 810 804 801 805 806 809 811 815 817 819 822 823 826 827 828 829 830 831 832 834 834 835 835 835 836 836 837 837 838 838 838 839 840 841 842 842 843 844 844 845 845 846 847 848 849 849 850 850 851 851 852 852 853 853 854 855 856 857 857 857 858 858 859 859 860 861 862 863 864
773 783 797 808 807 806 802 799 799 803 803 795 792 788 793 794 786 787 784 785 790 783 783 785 780 788 796 799 801 797 800 804 806 810 811 815 818 820 823 824 827 828 830 830 831 832 832 834 834 835 836 836 836 836 837 838 839 839 840 840 841 842 843 843 844 844 845 846 847 847 848 849 850 850 851 851 852 853 853 853 854 854 855 856 857 857 858 858 858 859 859 860 861 862 863 864 865
774 785 802 809 807 805 800 796 798 802 800 794 792 789 796 798 788 784 779 779 788 787 786 786 781 784 789 792 794 795 799 803 806 810 811 815 817 820 823 825 827 829 831 831 832 833 833 834 834 836 836 837 837 837 838 838 839 840 840 841 842 843 843 844 844 845 846 847 848 849 850 850 851 851 852 852 853 854 854 855 855 855 856 856 857 858 859 859 859 860 860 861 862 863 864 865 865
782 795 804 808 806 800 793 791 790 792 795 794 792 789 792 797 792 784 781 786 789 790 789 785 783 783 786 789 792 795 799 803 806 810 812 814 817 819 822 824 826 828 830 832 833 833 833 834 834 836 836 837 838 838 839 839 839 839 840 841 842 843 844 845 845 845 847 847 849 850 851 851 851 852 853 853 854 854 855 856 856 856 857 857 858 859 860 860 861 861 861 862 863 864 865 866 866
788 799 803 804 800 791 783 783 782 785 791 791 789 787 787 793 790 784 789 795 792 794 793 789 789 789 789 790 793 796 798 803 806 809 812 814 816 818 820 823 825 827 829 831 832 833 834 834 835 836 837 838 839 839 839 839 839 840 841 842 842 844 844 845 845 846 847 848 849 850 851 852 852 853 853 854 854 855 856 857 857 857 858 858 859 860 860 861 861 862 862 863 864 865 866 866 867
787 792 800 799 790 784 778 778 779 781 785 788 789 785 786 788 784 784 792 796 794 797 796 793 795 794 793 792 793 796 798 803 806 809 813 814 816 818 820 822 824 826 829 830 832 833 835 835 835 836 837 838 839 839 839 839 839 840 841 842 843 844 845 845 846 847 848 849 850 851 851 852 853 853 854 855 855 856 857 858 858 858 859 859 859 860 861 861 862 863 863 864 865 865 866 867 867
785 787 794 791 783 783 778 775 778 778 780 785 787 786 789 786 782 786 791 799 801 797 793 791 793 792 792 793 793 796 799 802 806 809 811 814 816 818 820 821 824 826 828 830 832 833 835 835 835 836 837 838 839 839 839 840 840 841 842 843 844 845 846 846 847 848 848 849 850 851 852 852 853 853 854 855 856 857 857 858 858 859 859 860 861 861 862 862 863 863 864 864 865 866 866 867 868
783 782 780 779 778 782 776 772 776 776 778 783 786 789 790 786 785 788 790 800 801 793 789 787 786 787 789 791 793 796 799 802 805 808 810 813 816 818 820 822 825 827 828 830 831 833 834 835 836 836 838 838 838 839 840 841 841 842 842 843 844 846 847 847 847 848 849 849 850 851 852 853 853 854 855 856 857 858 858 859 859 860 860 861 862 862 863 864 864 865 865 865 865 866 866 867 868
778 780 772 773 776 778 773 771 774 775 779 785 786 786 786 789 792 789 789 795 791 785 784 783 783 784 786 789 793 796 799 803 804 807 809 811 815 817 820 823 825 826 828 830 831 833 835 835 836 837 838 838 839 840 840 841 842 843 843 844 845 846 847 847 848 848 849 850 850 851 852 853 854 854 855 856 857 858 859 859 860 860 861 862 863 863 864 864 865 866 866 866 866 866 866 867 868
771 779 772 771 775 774 770 770 773 774 780 782 780 783 787 792 794 790 790 790 785 782 780 780 782 783 786 790 793 796 799 802 804 806 808 811 814 817 819 822 825 827 828 830 831 833 835 835 837 838 839 839 839 840 841 841 842 843 844 844 845 846 847 847 848 849 849 850 850 851 852 853 854 855 856 856 857 858 859 860 860 861 862 863 864 864 865 865 866 866 866 866 866 866 866 867 867
768 775 771 769 772 770 767 771 774 774 779 780 780 787 790 789 790 791 793 788 783 781 780 781 783 785 788 791 794 796 799 801 803 805 807 810 814 817 820 822 825 827 828 830 831 832 834 835 837 838 839 839 840 840 841 842 843 844 844 845 846 847 847 848 848 849 849 850 851 851 852 853 854 856 856 857 858 859 860 860 861 862 862 863 864 865 865 866 866 866 867 866 866 866 866 867 868
766 767 768 768 771 769 768 772 775 776 778 780 786 792 791 786 787 794 792 786 783 781 782 783 785 788 790 792 794 796 798 800 803 804 806 810 813 816 819 822 824 826 828 830 831 832 834 835 837 838 839 840 840 840 841 842 843 844 845 846 847 847 848 848 848 849 849 850 850 851 852 854 855 856 856 857 858 859 860 861 861 862 863 864 865 865 866 866 866 867 867 866 866 866 867 868 869
756 760 763 766 772 769 769 774 774 776 779 781 788 796 793 787 792 800 792 783 783 783 786 786 786 790 792 793 794 796 798 799 801 803 805 808 812 816 819 821 824 825 828 830 831 832 833 835 837 838 839 840 840 841 841 842 843 844 845 846 847 847 848 848 848 849 849 850 851 851 852 854 855 856 856 857 858 859 860 861 862 862 864 865 865 866 866 867 867 867 867 866 867 867 867 868 869
748 757 765 769 769 769 771 776 777 777 782 782 785 794 795 792 797 799 790 783 783 785 788 788 788 791 791 793 794 796 797 799 801 802 804 807 810 814 818 820 822 825 827 829 830 832 833 835 837 838 839 840 840 841 841 842 843 845 845 846 847 848 848 848 848 849 850 850 851 852 852 854 855 856 857 857 858 859 860 861 862 863 864 865 866 866 867 867 867 867 867 867 867 867 868 868 869
744 749 767 770 765 774 776 776 776 775 783 780 780 799 805 801 799 793 786 784 784 786 789 788 788 790 791 793 795 796 797 798 800 801 803 806 808 812 815 819 821 824 826 828 830 831 833 835 836 838 839 840 840 841 842 843 844 845 846 847 848 848 849 849 848 849 850 851 851 852 853 854 855 856 857 858 859 860 861 862 863 863 864 865 866 867 867 868 868 868 868 868 868 868 868 869 869
747 747 760 767 772 786 779 773 775 775 781 774 778 809 816 803 796 789 785 785 787 790 790 789 789 790 792 793 795 796 796 798 799 800 802 804 807 810 813 817 820 823 824 827 830 831 833 835 836 838 839 840 841 841 842 843 844 845 846 847 848 849 849 849 849 849 851 851 851 852 853 854 855 856 857 859 859 861 861 862 863 864 865 866 867 867 867 868 868 868 868 868 868 868 868 869 869
752 754 759 766 784 798 781 771 777 780 782 771 779 811 815 802 796 790 785 786 789 793 792 789 789 789 791 793 795 797 796 797 798 799 801 803 806 809 812 816 819 822 823 826 829 831 833 834 836 838 839 841 841 842 842 843 844 845 846 847 848 849 849 850 850 850 851 852 852 853 854 854 855 856 858 859 860 861 861 862 863 864 864 866 866 867 867 868 868 869 869 869 869 868 869 869 869
757 767 774 770 785 800 786 774 773 780 783 772 783 809 811 801 796 789 785 786 789 793 793 790 789 789 791 793 795 797 795 795 797 799 801 803 805 808 810 814 817 820 822 825 828 830 832 834 836 838 839 841 841 842 843 844 845 845 847 847 848 849 850 850 850 851 852 853 853 854 855 855 855 856 857 859 860 861 861 862 863 863 864 865 866 867 867 868 869 869 869 869 869 869 869 869 869
762 770 781 773 781 795 789 780 770 772 781 778 785 805 809 800 794 789 786 787 790 793 794 792 792 790 790 793 794 795 795 795 796 798 800 802 805 807 810 812 816 819 822 824 826 829 832 834 835 838 839 840 841 843 844 844 846 847 847 848 849 849 850 851 851 852 852 852 853 854 855 855 856 857 858 859 861 862 862 863 864 864 865 866 867 868 868 868 868 868 868 869 869 869 869 869 869
772 769 775 769 772 783 788 786 773 768 779 785 786 797 803 797 792 792 788 787 791 794 796 795 794 793 791 792 794 794 795 797 797 797 800 802 804 807 810 812 814 818 821 823 825 828 831 833 835 837 839 840 842 843 844 845 846 847 848 849 850 851 851 852 852 853 853 852 852 853 854 855 857 858 859 860 861 863 864 864 865 866 866 867 868 868 868 868 868 868 868 868 869 869 869 869 869
774 771 772 769 764 773 783 783 775 770 779 788 791 796 799 797 794 794 790 788 791 794 796 797 795 795 794 792 793 794 795 797 796 796 800 802 804 807 809 811 814 817 821 823 825 828 831 833 835 837 839 840 842 844 844 846 847 848 849 850 851 852 853 853 854 855 855 855 854 853 854 855 857 858 859 860 861 863 864 865 866 866 867 867 867 868 868 868 868 868 868 869 869 869 869 869 869
764 762 764 766 761 766 771 771 769 767 779 791 793 797 798 799 799 796 793 791 792 794 795 796 795 795 795 795 794 793 795 797 795 796 800 802 804 807 809 811 814 817 820 822 824 828 830 832 835 837 839 840 842 844 845 846 848 849 850 850 852 853 854 854 855 856 856 857 857 856 856 856 857 858 859 860 861 863 864 865 866 866 867 867 867 867 868 868 869 869 869 869 869 869 869 869 870
756 759 761 760 758 762 763 766 765 759 777 793 788 792 798 798 799 795 793 793 794 797 797 798 798 797 797 797 796 795 795 795 794 796 800 802 804 806 809 811 814 817 820 822 824 827 830 831 833 836 838 840 841 843 845 846 847 849 850 851 852 853 854 855 856 857 857 858 859 859 859 860 860 861 862 863 863 864 865 866 866 867 867 867 867 867 868 868 869 869 869 869 869 869 869 869 870
756 760 762 761 757 758 758 760 762 754 773 792 786 791 798 794 796 794 793 796 797 797 797 799 800 799 799 798 798 797 795 793 793 796 799 801 804 806 809 811 813 816 819 822 824 826 829 830 833 835 837 839 841 842 844 846 847 848 850 851 852 853 854 855 856 857 858 859 860 861 861 862 863 863 864 865 865 866 866 866 867 867 867 868 868 868 868 869 869 869 870 870 870 870 870 870 870
758 759 763 765 756 760 764 757 755 753 769 790 789 793 797 791 792 793 794 796 795 794 794 797 799 800 801 800 799 798 797 795 794 796 798 800 803 805 809 811 813 816 818 821 824 826 828 830 832 834 836 838 840 842 843 845 847 848 850 851 852 854 855 856 857 858 859 859 861 862 862 863 864 865 865 866 866 866 867 867 867 868 868 868 868 868 869 869 869 869 870 870 870 870 870 870 870
757 759 765 766 753 764 780 768 758 754 761 781 787 793 796 791 793 794 794 795 794 794 793 794 797 799 800 799 798 798 798 798 796 796 797 799 802 805 808 810 812 815 818 821 823 826 828 830 832 833 836 838 840 842 843 845 846 848 850 851 852 854 855 856 857 859 860 860 861 862 863 864 864 865 866 866 866 867 867 867 868 868 868 869 868 869 869 869 869 869 870 870 870 870 870 870 871
757 754 759 761 748 754 769 764 761 759 760 769 782 802 804 795 799 801 799 801 799 797 796 797 797 797 798 798 798 797 797 798 797 796 796 797 801 804 807 810 812 814 817 820 822 825 827 829 831 833 835 837 839 841 843 844 846 847 849 850 852 854 855 856 857 859 860 861 862 862 863 864 865 865 866 866 866 867 867 867 868 868 868 869 869 869 869 869 869 870 870 870 870 870 870 870 870
759 750 747 748 745 750 757 755 764 779 783 771 776 813 821 798 797 804 806 809 804 800 800 799 799 797 798 799 799 798 797 797 796 795 795 797 799 803 806 809 811 814 816 819 821 824 826 828 830 833 834 837 839 840 842 844 845 846 847 848 850 852 854 855 856 858 859 861 862 862 863 864 865 866 866 866 867 867 867 867 868 868 868 868 869 869 869 869 869 869 869 869 869 869 869 869 869
763 747 736 738 740 747 753 751 763 784 789 770 763 797 821 808 798 798 803 810 808 803 802 800 798 799 798 798 798 798 798 797 796 796 794 795 799 801 805 808 810 813 815 818 821 823 825 827 829 832 834 836 838 840 841 843 844 845 846 847 849 851 853 854 856 857 859 860 861 862 863 864 865 866 866 866 867 867 867 867 868 868 868 868 869 869 869 869 869 869 869 869 869 869 869 869 869
761 739 730 737 739 742 745 745 756 763 767 770 761 774 809 818 803 792 795 807 812 808 804 801 798 798 798 796 796 797 798 797 798 798 795 794 797 800 803 807 809 812 814 817 820 822 824 826 829 831 833 835 837 839 841 842 843 844 846 847 849 851 852 854 855 857 858 860 861 862 863 864 865 865 866 866 867 867 867 867 868 868 868 868 869 869 869 869 869 869 869 869 869 869 869 869 868
750 731 727 733 735 739 737 742 752 749 764 790 778 770 804 820 799 789 793 802 811 808 802 799 796 795 796 795 795 795 795 796 796 796 795 795 796 798 801 805 808 811 814 816 819 821 823 825 828 831 833 835 836 838 840 841 843 844 846 847 849 851 852 854 855 856 858 859 860 862 863 864 864 865 866 866 866 867 867 867 868 868 868 868 868 868 869 869 869 869 869 869 869 869 869 869 868
735 726 729 730 732 735 734 743 751 750 770 794 781 771 801 819 801 793 798 799 802 800 795 794 792 792 793 793 793 794 794 795 794 793 794 796 796 797 799 803 807 810 812 815 818 820 822 824 827 830 832 834 836 838 840 841 843 844 846 847 848 850 852 853 855 856 857 859 860 861 862 863 864 865 865 866 866 866 867 867 867 867 867 867 868 868 868 869 869 869 869 869 869 869 869 869 868
727 729 736 738 738 736 738 741 745 765 782 778 766 762 784 811 807 793 792 788 785 789 791 791 790 790 791 790 791 792 793 793 793 793 794 795 797 798 799 801 805 809 811 814 817 818 821 823 826 829 831 833 835 837 839 840 842 844 845 847 849 850 851 853 854 855 857 858 859 860 862 863 864 864 865 866 866 866 867 867 867 867 867 867 868 868 868 868 869 869 869 869 869 869 869 869 869
730 737 744 753 753 748 754 752 753 784 794 769 754 755 773 802 803 787 782 776 774 781 785 786 788 790 788 787 788 789 790 792 792 793 793 794 797 799 799 800 803 806 809 812 815 817 819 822 825 828 830 833 834 836 838 840 842 844 845 847 849 850 851 852 853 855 856 857 858 860 861 862 863 864 865 866 866 866 867 867 867 867 867 868 868 868 868 868 868 868 868 868 869 869 869 869 869
738 743 750 768 775 773 781 778 777 791 786 763 750 756 782 797 785 775 775 771 771 774 775 778 781 784 784 783 785 786 787 790 791 793 794 795 797 799 800 801 803 805 807 810 813 815 818 821 824 826 829 832 833 835 837 839 841 843 845 846 848 850 851 852 853 854 855 856 858 859 861 862 863 864 865 865 866 866 867 867 867 867 867 868 868 868 868 868 868 868 868 868 869 869 869 869 869
745 749 756 774 785 794 802 793 790 792 779 760 745 758 795 800 777 770 770 767 767 767 769 773 774 777 779 779 781 784 785 787 790 791 793 794 795 798 800 802 806 808 806 808 811 814 817 819 822 825 828 831 833 834 836 839 840 842 844 845 847 849 851 852 853 854 855 856 857 859 860 861 862 863 864 865 866 866 867 867 867 867 868 868 868 868 868 868 868 868 868 868 868 869 869 869 869
743 740 746 763 769 784 798 793 793 795 781 763 752 771 805 803 781 768 762 762 763 764 766 768 771 773 775 777 779 782 784 785 788 789 791 792 793 797 800 801 804 806 806 807 808 811 814 817 820 823 826 830 832 834 836 838 840 841 843 845 846 849 850 852 853 854 855 856 857 858 859 860 862 863 863 864 865 866 866 867 867 868 868 868 867 867 868 868 868 868 868 868 868 869 869 869 869
743 732 743 758 751 755 774 775 775 777 778 773 769 783 794 786 778 770 765 767 763 764 768 768 773 773 774 779 780 781 784 785 787 788 790 791 791 795 798 799 801 802 805 807 806 808 811 814 818 821 824 828 831 833 835 837 839 841 843 844 846 848 850 851 853 854 855 856 857 858 859 860 861 862 863 864 865 865 866 867 867 867 868 868 867 867 867 868 868 868 868 868 868 868 868 868 869
747 742 750 747 731 738 762 771 761 761 781 790 787 796 796 786 787 784 781 781 771 770 774 773 776 776 776 781 780 781 783 783 785 786 788 790 791 795 798 799 800 801 804 808 807 807 809 811 815 819 822 826 829 831 834 836 839 840 842 844 845 847 849 851 852 853 855 856 857 858 858 859 860 861 862 863 864 864 865 866 867 867 867 867 867 867 867 868 868 868 868 868 868 868 869 868 868
748 754 746 733 731 737 752 773 776 773 789 796 792 800 803 801 803 795 789 789 781 777 777 777 779 779 781 783 782 783 783 782 784 785 786 789 791 794 796 798 802 803 805 808 809 809 808 809 812 815 819 822 825 828 831 834 836 838 841 842 844 846 847 849 851 853 854 855 856 857 858 859 859 860 861 862 863 864 864 865 866 867 867 867 867 867 868 868 868 868 868 868 868 868 869 868 868
734 739 730 735 756 759 755 771 787 788 794 804 808 806 803 804 804 796 791 790 785 781 780 780 781 782 784 786 785 786 785 785 786 786 787 789 790 792 794 798 802 803 805 807 809 810 808 809 811 812 815 818 821 825 827 831 833 836 838 840 842 844 846 848 849 851 853 854 855 856 857 858 858 859 860 861 862 863 863 864 865 866 866 867 867 867 867 868 868 868 868 868 868 868 868 868 868
727 729 729 736 749 757 757 759 770 780 788 808 828 828 818 812 803 793 788 784 782 784 785 785 785 785 786 787 789 789 789 788 788 788 788 788 790 791 791 795 798 800 802 803 804 806 805 806 808 810 811 814 817 821 824 828 830 833 836 838 840 842 844 846 847 849 851 852 854 855 855 857 857 858 859 859 860 861 862 863 864 865 865 866 867 867 867 867 867 868 868 868 868 868 868 868 868
740 743 747 746 742 745 753 753 754 762 778 802 827 833 825 811 802 797 790 781 778 782 787 789 788 789 789 789 790 790 790 790 788 788 788 788 791 792 790 792 796 799 801 800 800 802 803 805 807 808 809 812 815 819 822 825 828 831 834 835 838 840 842 844 845 847 848 849 851 853 854 855 856 857 857 858 858 859 860 861 862 864 864 865 866 866 866 866 867 867 867 868 868 867 867 867 867
742 745 747 750 748 750 765 772 756 746 762 787 809 827 824 803 795 797 792 785 781 780 785 789 790 791 792 791 791 791 791 791 791 790 789 789 791 792 790 792 797 802 803 801 802 804 806 809 811 813 815 817 819 820 822 824 826 829 832 834 836 838 840 842 843 845 846 847 849 850 851 853 853 854 855 856 857 857 858 859 861 862 863 864 864 865 866 866 866 866 867 867 867 867 867 866 866